Location: Arrien
(43.3167°N, 0.1500°W)
Time: 13:23:01
(UTC+00:00)

Cosmos 2082 - Pass Details

Date: 31 May 2022
Orbit: 835 x 853 km, 71.0° (Epoch: 28 June)

Event Time Altitude Azimuth Distance (km) Brightness Sun altitude
Rises 20:24:22 0° 329° (NNW) 3,397 8.5 -8.3°
Reaches altitude 10° 20:26:55 10° 323° (NW) 2,457 7.7 -8.6°
Maximum altitude 20:32:13 44° 253° (WSW) 1,139 4.7 -9.4°
Drops below altitude 10° 20:37:29 10° 182° (S) 2,438 5.7 -10.1°
Enters shadow 20:39:16 - 178° (S) 3,090 6.2 -10.3°
